Location: Rounton
(54.4000°N, 1.3500°W)
Time: 14:12:48
(UTC+00:00)

Transit 2A Rocket - Pass Details

Date: 08 December 2021
Orbit: 584 x 918 km, 66.7° (Epoch: 17 January)

Event Time Altitude Azimuth Distance (km) Brightness Sun altitude
Rises 10:22:27 0° 281° (W) 3,501 8.1 10.2°
Reaches altitude 10° 10:25:21 10° 293° (WNW) 2,591 7.4 10.3°
Maximum altitude 10:30:27 27° 350° (N) 1,693 6.4 10.6°
Drops below altitude 10° 10:35:36 10° 47° (NE) 2,615 7.6 10.9°
Sets 10:38:32 0° 60° (ENE) 3,539 8.3 11.0°
